User: anonymous   Login
Location: �chenoz-la-M�line
(47.6009°N, 6.1354°E)
Time: 23:51:24
(UTC+00:00)
Language:

USA 308 - Orbit

View from above orbital plane
View from above orbital plane
View from above satellite
View from above satellite

Ground track
Ground track

The orbit data is extracted from the following two-line orbital elements,

1 45876U 20046D   21110.05865502 0.00002700  00000-0  22446-3 0    01
2 45876  53.9794 158.9653 0005378 269.3685  90.6314 14.98261071    00
Epoch (UTC): 20 April 2021 01:24:27
Eccentricity: 0.0005378
inclination: 53.9794°
perigee height: 568 km
apogee height: 576 km
right ascension of ascending node: 158.9653°
argument of perigee: 269.3685°
revolutions per day: 14.98261071
mean anomaly at epoch: 90.6314°
orbit number at epoch: 0

The dashed part of the orbit path shows where the satellite is in the earth's shadow,  

DLR